Location: Eastchurch
(51.4000°N, 0.8667°E)
Time: 22:29:53
(UTC+00:00)

Meteor 2-15 - Pass Details

Date: 19 January 2026
Orbit: 936 x 955 km, 82.5° (Epoch: 7 February)

Event Time Altitude Azimuth Distance (km) Brightness Sun altitude
Rises 17:30:10 0° 349° (N) 3,639 7.4 -10.1°
Reaches altitude 10° 17:32:41 10° 350° (N) 2,687 6.7 -10.5°
Maximum altitude 17:38:51 85° 79° (E) 958 4.4 -11.4°
Drops below altitude 10° 17:44:57 10° 169° (S) 2,656 6.9 -12.3°
Sets 17:47:25 0° 170° (S) 3,593 7.6 -12.7°
